Location: *
(35.2348°S, 91.3916°E)
Time: 23:36:26
(UTC+00:00)

NOSS 3-1 (A) - Pass Details

Date: 23 October 2019
Orbit: 771 x 1442 km, 63.4° (Epoch: 12 November)

Event Time Altitude Azimuth Distance (km) Brightness Sun altitude
Rises 14:47:49 0° 217° (SW) 3,680 7.7 -28.3°
Reaches altitude 10° 14:50:36 10° 221° (SW) 2,633 6.7 -28.7°
Maximum altitude 14:56:22 50° 295° (WNW) 1,061 3.7 -29.6°
Enters shadow 14:56:30 50° 299° (WNW) 1,060 3.7 -29.6°
